Location: San Vito
(41.8833°N, 12.9833°E)
Time: 15:24:59
(UTC+00:00)

Cosmos 1892 - Pass Details

Date: 17 November 2019
Orbit: 504 x 525 km, 82.5° (Epoch: 13 December)

Event Time Altitude Azimuth Distance (km) Brightness Sun altitude
Rises 03:54:37 0° 181° (S) 2,609 6.3 -23.2°
Reaches altitude 10° 03:56:44 10° 178° (S) 1,725 5.4 -22.8°
Maximum altitude 04:00:29 68° 96° (E) 551 2.9 -22.1°
Drops below altitude 10° 04:04:15 10° 13° (NNE) 1,730 5.4 -21.4°
Sets 04:06:23 0° 11° (N) 2,618 6.3 -21.0°
